Overview Statistics Trail Chart Weather Telemetry Raw packets
 

This is the latest recevied weather packets stored in our database for station/object W0WC. If no packets are shown the sender has not sent any weather packets the latest 10 day(s).

<< 89 90 91 92 93 94 95 >>
Time Temp. Humidity Pressure Rain* Wind** Luminosity Snow
1788031044 37.22° C 31% 1017.2 hPa 0 mm - 703 W/m² -
1788030739 37.22° C 30% 1017.5 hPa 0 mm - 654 W/m² -
1788030438 36.67° C 32% 1017.2 hPa 0 mm - 698 W/m² -
1788030134 36.67° C 30% 1017.4 hPa 0 mm - 696 W/m² -
1788029833 36.67° C 32% 1017.4 hPa 0 mm - 632 W/m² -
1788029529 36.67° C 32% 1017.8 hPa 0 mm - 643 W/m² -
1788029228 36.67° C 32% 1017.5 hPa 0 mm - 695 W/m² -
1788028922 36.67° C 30% 1017.8 hPa 0 mm - 708 W/m² -
1788028616 36.67° C 32% 1017.9 hPa 0 mm - 735 W/m² -
1788028311 36.67° C 30% 1017.6 hPa 0 mm - 736 W/m² -
1788028007 36.11° C 32% 1017.9 hPa 0 mm - 730 W/m² -
1788027702 35.56° C 33% 1018 hPa 0 mm - 732 W/m² -
1788027402 35.56° C 31% 1018.2 hPa 0 mm - 729 W/m² -
1788027097 35.56° C 33% 1018.4 hPa 0 mm - 730 W/m² -
1788026797 35.56° C 32% 1018.4 hPa 0 mm - 728 W/m² -
1788026492 35° C 33% 1018.5 hPa 0 mm - 702 W/m² -
1788026192 35.56° C 33% 1018.5 hPa 0 mm - 725 W/m² -
1788025891 35.56° C 33% 1018.6 hPa 0 mm - 665 W/m² -
1788025592 35° C 35% 1018.6 hPa 0 mm - 709 W/m² -
1788025291 35° C 35% 1018.8 hPa 0 mm - 721 W/m² -
1788024991 34.44° C 35% 1019.1 hPa 0 mm - 714 W/m² -
1788024686 35° C 36% 1019 hPa 0 mm - 712 W/m² -
1788024382 33.89° C 37% 1019.4 hPa 0 mm - 707 W/m² -
1788024077 33.89° C 37% 1019.3 hPa 0 mm - 700 W/m² -
1788023777 33.89° C 37% 1019.4 hPa 0 mm - 690 W/m² -

* Rain latest hour (hover to see other rain measurements)
** Current wind speed in m/s (hover to see current wind gust speed)